TimeCST,TemperatureF,Dew PointF,Humidity,Sea Level PressureIn,VisibilityMPH,Wind Direction,Wind SpeedMPH,Gust SpeedMPH,PrecipitationIn,Events,Conditions,WindDirDegrees,DateUTC
12:56 AM,30.9,21.0,67,29.76,-9999.0,West,9.2,16.1,N/A,,Unknown,260,2012-11-12 06:56:00
1:56 AM,30.0,18.0,61,29.77,-9999.0,West,6.9,16.1,N/A,,Unknown,270,2012-11-12 07:56:00
2:56 AM,30.0,18.0,61,29.78,-9999.0,West,6.9,-,N/A,,Unknown,260,2012-11-12 08:56:00
3:56 AM,28.9,19.9,69,29.78,-9999.0,West,6.9,-,N/A,,Unknown,270,2012-11-12 09:56:00
4:56 AM,28.0,19.0,69,29.80,-9999.0,Variable,5.8,20.7,N/A,,Unknown,0,2012-11-12 10:56:00
5:56 AM,28.0,19.0,69,29.80,-9999.0,West,9.2,-,N/A,,Unknown,270,2012-11-12 11:56:00
6:56 AM,28.0,18.0,66,29.81,-9999.0,West,6.9,-,N/A,,Unknown,260,2012-11-12 12:56:00
7:56 AM,28.9,19.9,69,29.82,-9999.0,West,6.9,17.3,N/A,,Unknown,270,2012-11-12 13:56:00
8:56 AM,28.9,19.9,69,29.83,-9999.0,West,8.1,18.4,N/A,,Unknown,270,2012-11-12 14:56:00
9:56 AM,28.9,19.0,67,29.83,-9999.0,WSW,9.2,-,N/A,,Unknown,250,2012-11-12 15:56:00
10:56 AM,28.0,16.0,61,29.84,-9999.0,Variable,6.9,-,N/A,,Unknown,0,2012-11-12 16:56:00
11:56 AM,28.9,14.0,54,29.84,-9999.0,West,9.2,-,N/A,,Unknown,260,2012-11-12 17:56:00
12:56 PM,30.0,15.1,54,29.85,-9999.0,Variable,3.5,-,N/A,,Unknown,0,2012-11-12 18:56:00
1:56 PM,30.0,15.1,54,29.86,-9999.0,Variable,5.8,-,N/A,,Unknown,0,2012-11-12 19:56:00
2:56 PM,30.0,16.0,56,29.88,-9999.0,West,9.2,16.1,N/A,,Unknown,260,2012-11-12 20:56:00
3:56 PM,28.0,17.1,63,29.92,-9999.0,West,4.6,-,N/A,,Unknown,270,2012-11-12 21:56:00
4:56 PM,27.0,17.1,66,29.95,-9999.0,Variable,3.5,-,N/A,,Unknown,0,2012-11-12 22:56:00
5:56 PM,28.0,19.9,72,29.98,-9999.0,West,8.1,-,N/A,,Unknown,260,2012-11-12 23:56:00
6:56 PM,28.0,21.9,78,30.00,-9999.0,West,5.8,-,N/A,,Unknown,260,2012-11-13 00:56:00
7:56 PM,28.9,23.0,78,30.02,-9999.0,West,5.8,-,N/A,,Unknown,260,2012-11-13 01:56:00
8:56 PM,30.0,24.1,79,30.05,-9999.0,West,5.8,-,N/A,,Unknown,260,2012-11-13 02:56:00
9:56 PM,30.9,24.1,76,30.08,-9999.0,West,6.9,-,N/A,,Unknown,260,2012-11-13 03:56:00
10:56 PM,30.9,21.0,67,30.11,-9999.0,Variable,5.8,-,N/A,,Unknown,0,2012-11-13 04:56:00
11:56 PM,28.9,19.0,67,30.12,-9999.0,NW,12.7,23.0,N/A,,Unknown,320,2012-11-13 05:56:00